#timestamp,LO_Frequency,Hit,StdDev 
1707069615.2,286046998.6,N
1707069635.1,286046998.7,N
1707069636.0,286046998.7,N
1707069655.8,286046998.7,N
1707069675.7,286046998.6,N
1707069695.5,286046998.3,N
1707069715.3,286046998.9,N
1707069735.2,286046996.6,Y
1707069755.0,286047000.8,P
1707069755.9,286047000.8,N
1707069775.7,286047001.1,N
1707069795.6,286047001.2,N
1707069815.4,286046998.7,N
1707069835.3,286046999.3,N
1707069855.1,286046999.4,N
1707069856.0,286046999.4,N
1707069875.8,286046999.5,N
1707069895.7,286046998.5,N
1707069915.5,286046998.4,N
1707069935.3,286046998.8,N
1707069955.2,286046999.2,N
1707069975.0,286046999.5,N
1707069975.9,286046999.5,N
1707069995.8,286046999.1,N
1707070015.6,286046999.5,N
1707070035.4,286046997.0,Y
1707070055.3,286046998.9,P
1707070075.1,286046998.7,P
1707070095.9,286046999.4,N
1707070115.7,286046996.9,Y
1707070135.5,286046998.7,P
1707070155.4,286046998.3,P
1707070175.2,286046999.3,N
1707070195.0,286046999.4,N
1707070196.0,286046999.4,N
1707070215.8,286046998.3,Y
1707070235.6,286046998.1,P
1707070255.5,286047001.0,N
1707070275.3,286046999.7,N
1707070295.1,286047000.6,N
1707070315.9,286046999.9,N
1707070335.7,286047002.4,N
1707070355.6,286047001.5,N
1707070375.4,286047001.6,N
1707070395.2,286047001.6,N
1707070415.1,286047004.3,Y
1707070416.0,286047004.3,P
1707070435.8,286047001.9,N
1707070485.7,286047001.6,E
1707070495.6,286047002.8,N
1707070515.4,286047000.0,P
1707070535.3,286047000.1,N
1707070555.1,286047000.2,N
1707070556.0,286047000.2,N
1707070575.8,286046999.7,N
1707070595.7,286047000.1,N
1707070615.5,286047000.2,N
1707070635.3,286047002.5,N
1707070655.2,286047002.2,N
1707070705.0,286047002.6,E
1707070715.9,286046998.1,N
1707070735.7,286046998.7,P
1707070755.5,286046998.8,P
1707070775.4,286046998.4,Y
1707070795.2,286047002.8,P
1707070815.1,286047000.1,N
1707070816.0,286047000.1,N
1707070835.8,286047000.7,N
1707070855.6,286047000.0,N
1707070875.5,286047000.6,N
1707070895.3,286047001.2,N
1707070915.1,286047001.2,N
1707070935.9,286047001.1,N
1707070955.7,286047000.9,N
1707070975.6,286047000.7,N
1707070995.4,286047001.1,N
1707071015.2,286047001.1,N
1707071035.1,286046998.5,N
1707071036.0,286046998.5,N
1707071055.8,286046998.7,N
1707071075.7,286046998.3,N
1707071095.5,286047001.1,N
1707071115.3,286047001.0,N
1707071135.2,286046998.1,N
1707071155.0,286047000.6,N
1707071155.9,286047000.6,N
1707071175.8,286046998.5,N
1707071195.6,286047001.2,N
1707071215.4,286047001.1,N
1707071235.3,286046998.1,N
1707071255.1,286047001.2,N
1707071275.8,286047000.8,N
1707071295.7,286047001.1,N
1707071315.5,286047000.8,N
1707071335.4,286047000.8,N
1707071355.2,286046998.8,N
1707071375.0,286047001.2,N
1707071375.9,286047001.2,N
1707071395.8,286046999.0,N
1707071415.6,286046998.9,N
1707071435.4,286046998.4,N
1707071455.3,286046998.4,N
1707071475.1,286046999.1,N
1707071495.9,286046999.1,N
1707071515.7,286046998.6,N
1707071535.5,286047000.9,N
1707071555.4,286047001.2,N
1707071575.2,286046998.1,N
1707071595.0,286047000.1,N
1707071595.9,286047000.1,N
1707071615.8,286047002.7,N
1707071635.6,286047002.4,N
1707071655.5,286047001.7,N
1707071675.3,286047001.7,N
1707071695.1,286047003.9,N
1707071715.9,286047005.9,Y
1707071735.7,286047003.1,P
1707071755.6,286047003.3,N
1707071775.4,286047005.4,P
1707071795.2,286047003.3,N
1707071815.1,286047006.0,Y
1707071816.0,286047006.0,P
1707071835.8,286047000.1,N
1707071855.6,286047000.3,N
1707071875.5,286046999.7,N
1707071895.3,286046999.7,N
1707071915.2,286047002.6,N
1707071935.9,286047002.8,N
1707071955.7,286047002.2,N
1707071975.6,286047002.1,N
1707071995.4,286047003.7,N
1707072015.2,286047003.2,N
1707072035.1,286047001.4,N
1707072036.0,286047001.4,N
1707072055.8,286047004.0,N
1707072075.7,286047003.9,N
1707072095.5,286047004.2,N
1707072115.3,286047003.7,N
1707072135.2,286047005.6,Y
1707072155.0,286047001.9,P
1707072155.9,286047001.9,P
1707072175.8,286047001.8,P
1707072195.6,286047001.6,Y
1707072215.4,286047000.7,P
1707072235.3,286047000.4,N
1707072255.1,286046999.8,N
1707072275.9,286047000.3,N
1707072295.7,286047000.0,N
1707072315.5,286047000.2,N
1707072335.4,286046999.9,N
1707072355.2,286047000.3,N
1707072375.1,286047000.3,N
1707072376.0,286047000.3,N
1707072395.8,286047002.8,Y
1707072415.6,286047000.4,P
1707072435.5,286047002.3,P
1707072455.3,286046999.7,N
1707072475.1,286047002.4,N
1707072495.9,286046999.7,N
1707072515.7,286047000.0,N
1707072535.6,286047002.8,N
1707072555.4,286046999.8,N
1707072575.2,286047000.7,N
1707072595.1,286047000.9,N
1707072596.0,286047000.9,N
1707072615.8,286047002.5,N
1707072635.6,286046999.9,N
1707072655.5,286047002.4,N
1707072675.3,286047000.1,N
1707072695.2,286046999.7,N
1707072715.9,286046999.8,N
1707072735.7,286047000.1,N
1707072755.6,286047002.8,N
1707072775.4,286047002.7,N
1707072795.2,286047002.7,N
1707072815.1,286047001.1,N
1707072816.0,286047001.1,N
1707072835.8,286047000.3,N
1707072855.7,286047002.7,N
1707072875.5,286047001.9,N
1707072895.3,286047000.3,N
1707072915.2,286047000.7,N
1707072935.0,286047000.6,N
1707072935.9,286047000.6,N
1707072955.7,286047001.0,N
1707072975.6,286047000.4,N
1707072995.4,286047000.5,N
1707073015.3,286047002.3,N
1707073035.1,286047000.6,N
1707073036.0,286047000.6,N
1707073055.8,286047000.2,N
1707073075.7,286047000.2,N
1707073095.5,286047000.3,N
1707073115.3,286047000.1,N
1707073135.2,286046999.7,N
1707073155.0,286047000.0,N
1707073155.9,286047000.0,N
1707073175.8,286046999.9,N
1707073195.6,286047000.2,N
